Location: Starhoo Observatory
(41.8578°N, 70.9669°W)
Time: 04:11:38
(UTC-04:00)

ISS - Visible Passes

Search period start: 01 October 2014 00:00
Search period end: 11 October 2014 00:00
Orbit: 413 x 416 km, 51.6° (Epoch: 01 October)

Date Brightness Start Highest point End Pass type
(mag) Time Alt. Az. Time Alt. Az. Time Alt. Az.
01 Oct -0.1 04:05:27 13° ESE 04:05:27 13° ESE 04:05:49 10° ESE visible
01 Oct -2.0 05:38:22 21° WSW 05:39:08 23° SW 05:41:48 10° S visible
02 Oct -1.2 04:52:12 18° SSE 04:52:12 18° SSE 04:53:16 10° SSE visible
05 Oct -0.3 20:37:57 10° SW 20:38:13 12° SW 20:38:13 12° SW visible
06 Oct -2.8 19:48:54 10° SSW 19:51:42 43° SSE 19:51:42 43° SSE visible
07 Oct -2.1 19:00:09 10° SSW 19:02:58 26° SE 19:04:59 15° E visible
07 Oct -0.8 20:36:22 10° W 20:37:51 23° W 20:37:51 23° W visible
08 Oct -3.0 19:46:54 10° WSW 19:50:12 66° NNW 19:50:57 47° NNE visible
09 Oct -3.3 18:57:37 10° SW 19:00:55 72° SE 19:03:54 12° ENE visible
09 Oct -0.6 20:35:07 10° WNW 20:36:46 20° NW 20:36:46 20° NW visible
10 Oct -1.7 19:45:23 10° W 19:48:24 31° NNW 19:49:35 24° NNE visible
